Location: Maccacari
(45.1333°N, 11.1333°E)
Time: 00:45:58
(UTC+00:00)

S-56A Canister/Altair - Pass Details

Date: 28 June 2021
Orbit: 631 x 2501 km, 38.9° (Epoch: 30 July)

Event Time Altitude Azimuth Distance (km) Brightness Sun altitude
Exits shadow 23:46:41 11° 117° (ESE) 2,224 9.7 -21.3°
Drops below altitude 10° 23:46:58 10° 115° (ESE) 2,277 9.8 -21.3°
Sets 23:49:50 0° 94° (E) 3,050 10.7 -21.3°
